GEFSSE_prec_meanprecacc_072.txt.gz
Total_Precipitation_Accumulation
0.01 0.02 0.08 0.12 0.12 0.12 0.19 0.28 0.31 0.29 0.33 0.42 0.42 0.37 0.34 0.20 0.15 0.14 0.15 0.17 0.24 0.34 0.34 0.30 0.27 0.23 0.18 0.17 0.21 0.25 0.33 0.41 0.45 0.46 0.52 0.54 0.50 0.48 0.51 0.53 0.50 0.69 0.41
0.00 0.01 0.07 0.12 0.11 0.10 0.14 0.21 0.28 0.28 0.31 0.37 0.39 0.39 0.27 0.16 0.13 0.13 0.14 0.15 0.19 0.24 0.26 0.29 0.31 0.26 0.21 0.24 0.28 0.31 0.33 0.39 0.46 0.46 0.53 0.51 0.47 0.49 0.43 0.37 0.40 0.54 0.37
0.01 0.02 0.07 0.14 0.12 0.09 0.11 0.20 0.28 0.32 0.36 0.41 0.44 0.43 0.21 0.11 0.10 0.12 0.14 0.18 0.20 0.16 0.17 0.24 0.31 0.29 0.25 0.28 0.34 0.35 0.36 0.38 0.42 0.44 0.66 0.90 0.56 0.50 0.52 0.51 0.45 0.39 0.38
0.01 0.06 0.15 0.19 0.16 0.13 0.16 0.26 0.34 0.40 0.44 0.53 0.52 0.36 0.13 0.09 0.12 0.14 0.18 0.22 0.18 0.11 0.12 0.16 0.23 0.24 0.22 0.27 0.32 0.31 0.36 0.39 0.42 0.44 0.71 0.98 0.81 0.71 0.68 0.65 0.56 0.38 0.39
0.02 0.11 0.26 0.25 0.22 0.20 0.24 0.34 0.44 0.49 0.48 0.54 0.50 0.27 0.13 0.10 0.12 0.18 0.24 0.20 0.12 0.09 0.08 0.10 0.15 0.16 0.17 0.18 0.24 0.28 0.33 0.40 0.50 0.53 0.73 0.93 0.97 0.76 0.69 0.78 0.75 0.54 0.49
0.02 0.08 0.19 0.24 0.23 0.23 0.30 0.40 0.45 0.40 0.39 0.48 0.41 0.26 0.15 0.15 0.16 0.19 0.17 0.10 0.07 0.06 0.05 0.06 0.09 0.11 0.12 0.13 0.18 0.25 0.34 0.42 0.48 0.59 0.74 0.94 0.92 0.67 0.64 0.77 0.81 0.69 0.57
0.02 0.04 0.10 0.19 0.19 0.20 0.29 0.39 0.43 0.36 0.41 0.45 0.42 0.34 0.18 0.18 0.19 0.20 0.12 0.07 0.04 0.04 0.05 0.04 0.05 0.05 0.07 0.10 0.14 0.20 0.29 0.28 0.39 0.56 0.70 0.93 0.71 0.49 0.50 0.69 0.90 0.88 0.69
0.02 0.03 0.07 0.17 0.17 0.19 0.25 0.32 0.37 0.37 0.46 0.45 0.36 0.30 0.26 0.19 0.18 0.14 0.08 0.05 0.03 0.04 0.06 0.03 0.02 0.04 0.05 0.11 0.14 0.17 0.21 0.18 0.23 0.35 0.53 0.75 0.63 0.58 0.46 0.52 0.70 0.83 0.79
0.04 0.04 0.07 0.12 0.15 0.19 0.26 0.29 0.35 0.40 0.49 0.48 0.32 0.27 0.31 0.20 0.13 0.08 0.04 0.02 0.02 0.03 0.04 0.02 0.02 0.04 0.07 0.11 0.14 0.14 0.15 0.16 0.20 0.25 0.35 0.54 0.52 0.55 0.44 0.45 0.56 0.66 0.74
0.10 0.10 0.09 0.12 0.16 0.22 0.30 0.33 0.33 0.34 0.42 0.41 0.29 0.28 0.29 0.18 0.10 0.05 0.02 0.01 0.01 0.03 0.05 0.02 0.02 0.05 0.07 0.10 0.11 0.10 0.10 0.12 0.18 0.20 0.32 0.34 0.38 0.39 0.32 0.33 0.39 0.45 0.50
0.18 0.21 0.17 0.14 0.15 0.20 0.31 0.35 0.42 0.44 0.48 0.42 0.34 0.30 0.22 0.17 0.15 0.10 0.04 0.02 0.02 0.05 0.06 0.03 0.04 0.05 0.04 0.06 0.06 0.05 0.04 0.10 0.13 0.16 0.24 0.27 0.31 0.28 0.24 0.25 0.27 0.29 0.30
0.28 0.30 0.29 0.26 0.22 0.18 0.22 0.40 0.59 0.53 0.48 0.40 0.45 0.38 0.31 0.27 0.28 0.15 0.10 0.09 0.04 0.05 0.06 0.04 0.04 0.03 0.01 0.01 0.01 0.01 0.03 0.05 0.08 0.10 0.14 0.23 0.25 0.23 0.19 0.19 0.21 0.21 0.21
0.38 0.37 0.30 0.29 0.24 0.23 0.30 0.40 0.55 0.62 0.63 0.63 0.49 0.49 0.43 0.31 0.18 0.07 0.08 0.10 0.06 0.06 0.05 0.04 0.03 0.02 0.02 0.01 0.00 0.01 0.02 0.04 0.06 0.09 0.14 0.26 0.28 0.23 0.19 0.16 0.16 0.17 0.17
0.42 0.45 0.39 0.37 0.35 0.32 0.28 0.32 0.42 0.45 0.45 0.45 0.40 0.32 0.35 0.31 0.20 0.11 0.12 0.14 0.11 0.05 0.04 0.05 0.05 0.04 0.04 0.02 0.01 0.03 0.03 0.02 0.06 0.12 0.15 0.33 0.42 0.34 0.27 0.19 0.17 0.17 0.17
0.42 0.46 0.48 0.50 0.49 0.52 0.47 0.40 0.37 0.39 0.40 0.44 0.48 0.35 0.27 0.23 0.22 0.20 0.13 0.17 0.13 0.05 0.06 0.08 0.04 0.03 0.05 0.02 0.03 0.05 0.03 0.03 0.06 0.11 0.16 0.33 0.56 0.66 0.53 0.37 0.28 0.23 0.22
0.43 0.55 0.59 0.56 0.58 0.55 0.49 0.50 0.50 0.47 0.49 0.50 0.49 0.34 0.26 0.24 0.22 0.23 0.14 0.13 0.08 0.08 0.10 0.05 0.04 0.05 0.06 0.01 0.01 0.02 0.02 0.02 0.04 0.10 0.20 0.31 0.50 0.77 0.87 0.69 0.54 0.43 0.33
0.42 0.55 0.67 0.65 0.67 0.62 0.56 0.57 0.59 0.58 0.53 0.53 0.55 0.42 0.34 0.31 0.27 0.32 0.25 0.17 0.12 0.12 0.10 0.09 0.11 0.07 0.07 0.02 0.01 0.01 0.02 0.04 0.04 0.04 0.09 0.23 0.31 0.40 0.64 0.78 0.78 0.68 0.49
0.39 0.50 0.62 0.63 0.68 0.70 0.69 0.68 0.65 0.60 0.59 0.62 0.64 0.59 0.49 0.41 0.39 0.49 0.45 0.32 0.27 0.25 0.18 0.14 0.09 0.07 0.08 0.06 0.05 0.03 0.02 0.02 0.04 0.03 0.03 0.05 0.07 0.10 0.16 0.25 0.31 0.43 0.49
0.40 0.46 0.51 0.57 0.76 0.79 0.74 0.80 0.80 0.76 0.80 0.82 0.82 0.78 0.69 0.62 0.63 0.74 0.74 0.57 0.42 0.43 0.35 0.23 0.16 0.16 0.12 0.13 0.09 0.08 0.03 0.02 0.02 0.02 0.02 0.02 0.02 0.03 0.06 0.06 0.08 0.13 0.21
0.34 0.39 0.45 0.54 0.66 0.77 0.91 0.99 1.07 1.08 1.06 1.15 1.20 1.17 1.00 0.92 0.93 1.02 1.01 0.89 0.74 0.69 0.63 0.44 0.39 0.34 0.29 0.28 0.18 0.13 0.08 0.05 0.02 0.02 0.02 0.02 0.02 0.01 0.02 0.01 0.03 0.04 0.05
0.25 0.30 0.37 0.53 0.68 0.83 0.95 1.08 1.34 1.50 1.59 1.55 1.55 1.62 1.50 1.29 1.33 1.37 1.24 1.35 1.30 1.13 1.04 0.85 0.82 0.76 0.55 0.35 0.51 0.52 0.26 0.11 0.06 0.05 0.04 0.02 0.02 0.02 0.01 0.01 0.02 0.03 0.02
0.15 0.22 0.29 0.43 0.66 0.88 1.10 1.29 1.48 1.78 1.92 1.91 1.98 1.91 1.86 1.73 1.70 1.58 1.55 1.68 1.66 1.65 1.64 1.35 1.29 1.22 0.88 0.56 0.82 1.04 0.68 0.42 0.19 0.09 0.07 0.05 0.04 0.04 0.03 0.02 0.01 0.01 0.01
0.09 0.14 0.21 0.33 0.55 0.85 1.16 1.40 1.58 1.80 2.05 2.13 2.02 1.97 2.02 2.08 2.09 1.95 1.88 1.92 1.86 1.82 1.92 1.86 1.69 1.60 1.40 1.02 0.89 1.05 0.95 0.81 0.57 0.18 0.10 0.10 0.10 0.10 0.08 0.06 0.04 0.02 0.01
0.10 0.13 0.17 0.31 0.46 0.69 0.96 1.27 1.49 1.74 2.03 2.10 2.05 2.02 2.05 2.15 2.22 2.16 2.10 2.11 2.04 1.90 1.89 1.92 1.84 1.85 1.88 1.55 1.24 1.01 0.84 0.83 0.80 0.51 0.24 0.15 0.19 0.20 0.17 0.11 0.06 0.04 0.04
0.14 0.18 0.24 0.37 0.50 0.71 0.95 1.26 1.53 1.71 1.86 2.02 2.03 1.95 1.86 1.88 1.90 1.89 1.99 2.09 2.04 1.97 1.93 2.01 2.03 2.06 1.93 1.77 1.57 1.43 1.29 1.10 0.80 0.75 0.63 0.38 0.26 0.24 0.23 0.19 0.15 0.10 0.07
0.24 0.29 0.37 0.48 0.68 0.83 0.94 1.08 1.20 1.39 1.65 1.76 1.85 1.88 1.86 1.80 1.68 1.64 1.72 1.82 1.88 1.87 1.84 1.81 1.86 1.90 1.91 1.91 1.76 1.56 1.47 1.36 1.24 1.11 0.83 0.62 0.48 0.29 0.23 0.20 0.19 0.17 0.15

GEFSSE_prec_meanprecacc_078.txt.gz
Total_Precipitation_Accumulation
0.03 0.03 0.10 0.13 0.12 0.12 0.19 0.29 0.31 0.29 0.33 0.42 0.42 0.38 0.35 0.20 0.15 0.14 0.15 0.17 0.24 0.34 0.34 0.30 0.28 0.24 0.18 0.18 0.22 0.26 0.34 0.42 0.46 0.49 0.55 0.58 0.53 0.51 0.55 0.59 0.58 0.73 0.47
0.02 0.02 0.09 0.13 0.11 0.10 0.14 0.22 0.28 0.28 0.31 0.37 0.39 0.39 0.27 0.16 0.13 0.13 0.14 0.16 0.19 0.24 0.26 0.29 0.32 0.27 0.22 0.24 0.28 0.31 0.34 0.39 0.47 0.49 0.60 0.58 0.51 0.52 0.46 0.42 0.47 0.60 0.43
0.02 0.02 0.08 0.15 0.12 0.09 0.11 0.20 0.29 0.32 0.36 0.41 0.44 0.43 0.21 0.11 0.11 0.12 0.15 0.18 0.20 0.16 0.17 0.24 0.31 0.29 0.25 0.28 0.34 0.35 0.37 0.39 0.44 0.48 0.72 0.95 0.60 0.54 0.55 0.55 0.49 0.42 0.42
0.02 0.07 0.15 0.19 0.16 0.13 0.16 0.26 0.34 0.40 0.45 0.53 0.52 0.37 0.13 0.09 0.12 0.15 0.20 0.23 0.18 0.12 0.12 0.16 0.23 0.24 0.22 0.27 0.32 0.31 0.37 0.40 0.46 0.51 0.75 1.02 0.85 0.76 0.72 0.68 0.58 0.39 0.42
0.06 0.13 0.27 0.27 0.23 0.21 0.24 0.34 0.44 0.49 0.48 0.54 0.50 0.27 0.13 0.11 0.12 0.18 0.25 0.20 0.12 0.09 0.08 0.10 0.15 0.16 0.17 0.18 0.24 0.28 0.34 0.43 0.55 0.59 0.77 0.97 1.01 0.81 0.72 0.80 0.76 0.56 0.52
0.08 0.12 0.22 0.27 0.24 0.24 0.30 0.41 0.45 0.40 0.39 0.48 0.41 0.26 0.15 0.15 0.16 0.19 0.17 0.11 0.07 0.07 0.06 0.06 0.09 0.11 0.13 0.13 0.18 0.26 0.35 0.44 0.52 0.63 0.78 0.98 0.95 0.70 0.66 0.78 0.82 0.71 0.60
0.13 0.13 0.21 0.25 0.22 0.22 0.30 0.39 0.43 0.36 0.41 0.45 0.42 0.34 0.19 0.18 0.19 0.20 0.13 0.07 0.04 0.05 0.05 0.04 0.05 0.05 0.07 0.10 0.14 0.20 0.30 0.31 0.43 0.61 0.76 0.97 0.74 0.51 0.51 0.70 0.91 0.90 0.73
0.18 0.18 0.18 0.24 0.23 0.23 0.29 0.35 0.39 0.38 0.46 0.46 0.36 0.30 0.27 0.20 0.18 0.14 0.08 0.05 0.03 0.04 0.06 0.03 0.02 0.04 0.05 0.11 0.14 0.17 0.22 0.20 0.27 0.42 0.59 0.79 0.67 0.60 0.46 0.53 0.72 0.84 0.82
0.25 0.24 0.23 0.23 0.25 0.28 0.34 0.36 0.40 0.43 0.51 0.50 0.33 0.27 0.31 0.20 0.13 0.08 0.04 0.02 0.02 0.03 0.05 0.02 0.02 0.04 0.07 0.11 0.14 0.14 0.16 0.18 0.24 0.32 0.41 0.57 0.58 0.57 0.45 0.46 0.57 0.67 0.77
0.30 0.30 0.26 0.26 0.30 0.35 0.41 0.44 0.43 0.42 0.47 0.44 0.31 0.28 0.30 0.18 0.10 0.06 0.02 0.01 0.01 0.03 0.05 0.03 0.03 0.05 0.07 0.10 0.11 0.11 0.11 0.13 0.23 0.27 0.36 0.38 0.45 0.43 0.33 0.34 0.40 0.46 0.53
0.36 0.37 0.32 0.30 0.33 0.39 0.46 0.49 0.57 0.57 0.57 0.49 0.39 0.34 0.25 0.18 0.16 0.11 0.04 0.03 0.02 0.05 0.06 0.03 0.04 0.05 0.04 0.06 0.06 0.05 0.04 0.11 0.19 0.21 0.27 0.31 0.38 0.32 0.26 0.26 0.28 0.29 0.31
0.40 0.42 0.41 0.41 0.37 0.36 0.40 0.60 0.74 0.64 0.57 0.48 0.51 0.43 0.35 0.30 0.29 0.16 0.11 0.12 0.06 0.06 0.06 0.04 0.05 0.03 0.01 0.01 0.01 0.02 0.03 0.08 0.14 0.14 0.17 0.29 0.31 0.28 0.22 0.20 0.22 0.22 0.22
0.48 0.49 0.42 0.40 0.34 0.34 0.45 0.59 0.74 0.77 0.76 0.74 0.59 0.57 0.50 0.37 0.23 0.10 0.11 0.13 0.08 0.07 0.05 0.04 0.03 0.02 0.02 0.01 0.00 0.01 0.03 0.07 0.13 0.13 0.17 0.31 0.32 0.27 0.22 0.18 0.17 0.18 0.18
0.49 0.52 0.48 0.45 0.42 0.40 0.40 0.47 0.58 0.61 0.61 0.60 0.56 0.49 0.47 0.41 0.29 0.17 0.15 0.19 0.14 0.07 0.04 0.05 0.05 0.04 0.04 0.02 0.02 0.04 0.04 0.04 0.11 0.15 0.17 0.35 0.44 0.36 0.30 0.22 0.18 0.18 0.19
0.45 0.48 0.51 0.54 0.52 0.58 0.56 0.52 0.49 0.52 0.54 0.56 0.59 0.47 0.40 0.36 0.34 0.30 0.21 0.24 0.19 0.09 0.08 0.09 0.04 0.03 0.05 0.02 0.05 0.06 0.04 0.05 0.10 0.13 0.17 0.35 0.57 0.67 0.55 0.39 0.30 0.24 0.23
0.45 0.56 0.60 0.57 0.60 0.57 0.52 0.55 0.58 0.56 0.58 0.60 0.59 0.49 0.42 0.39 0.37 0.38 0.28 0.27 0.20 0.21 0.21 0.10 0.06 0.06 0.07 0.02 0.01 0.03 0.03 0.03 0.06 0.12 0.20 0.32 0.51 0.78 0.89 0.70 0.56 0.45 0.34
0.42 0.56 0.67 0.65 0.67 0.63 0.58 0.60 0.64 0.63 0.60 0.61 0.62 0.51 0.44 0.45 0.44 0.51 0.47 0.37 0.31 0.31 0.27 0.20 0.17 0.10 0.09 0.03 0.02 0.02 0.02 0.05 0.05 0.05 0.10 0.24 0.31 0.41 0.65 0.81 0.80 0.70 0.52
0.40 0.50 0.63 0.64 0.69 0.72 0.71 0.70 0.67 0.63 0.63 0.68 0.70 0.64 0.56 0.52 0.53 0.68 0.69 0.54 0.47 0.44 0.36 0.31 0.21 0.13 0.11 0.08 0.06 0.04 0.03 0.03 0.05 0.04 0.05 0.06 0.08 0.10 0.17 0.26 0.34 0.45 0.52
0.40 0.47 0.51 0.58 0.77 0.81 0.76 0.82 0.82 0.78 0.82 0.85 0.86 0.83 0.75 0.69 0.74 0.90 0.94 0.79 0.66 0.66 0.54 0.40 0.31 0.29 0.18 0.17 0.12 0.10 0.05 0.03 0.02 0.03 0.03 0.04 0.03 0.04 0.07 0.06 0.09 0.14 0.23
0.34 0.39 0.46 0.54 0.66 0.78 0.93 1.01 1.08 1.09 1.09 1.19 1.25 1.22 1.05 0.98 1.01 1.12 1.19 1.12 1.02 0.99 0.88 0.66 0.60 0.52 0.43 0.38 0.25 0.18 0.11 0.08 0.05 0.03 0.04 0.05 0.04 0.03 0.03 0.02 0.04 0.05 0.06
0.25 0.30 0.37 0.53 0.68 0.83 0.95 1.10 1.35 1.51 1.60 1.58 1.58 1.66 1.56 1.36 1.41 1.48 1.40 1.59 1.61 1.49 1.34 1.14 1.08 1.00 0.75 0.51 0.63 0.62 0.33 0.16 0.11 0.09 0.06 0.05 0.05 0.05 0.04 0.03 0.03 0.03 0.03
0.15 0.22 0.29 0.44 0.66 0.89 1.10 1.30 1.49 1.80 1.94 1.93 1.99 1.94 1.89 1.77 1.76 1.66 1.68 1.85 1.87 1.91 1.92 1.63 1.56 1.49 1.14 0.77 0.97 1.17 0.77 0.48 0.24 0.13 0.11 0.09 0.09 0.10 0.09 0.07 0.05 0.03 0.02
0.09 0.14 0.21 0.34 0.55 0.85 1.16 1.41 1.59 1.82 2.07 2.16 2.06 2.01 2.05 2.12 2.15 2.02 1.95 2.01 2.00 2.02 2.14 2.10 1.91 1.82 1.62 1.24 1.07 1.20 1.04 0.85 0.62 0.24 0.16 0.17 0.18 0.18 0.16 0.13 0.11 0.09 0.06
0.10 0.13 0.17 0.31 0.47 0.70 0.97 1.28 1.52 1.77 2.06 2.13 2.09 2.06 2.10 2.21 2.27 2.22 2.17 2.19 2.14 2.05 2.08 2.12 2.04 2.07 2.09 1.76 1.45 1.17 0.96 0.90 0.85 0.55 0.30 0.24 0.28 0.30 0.27 0.19 0.15 0.14 0.11
0.14 0.18 0.24 0.38 0.51 0.72 0.96 1.27 1.56 1.75 1.89 2.05 2.06 1.98 1.91 1.93 1.95 1.94 2.05 2.17 2.13 2.09 2.06 2.18 2.22 2.29 2.16 1.98 1.76 1.61 1.43 1.20 0.88 0.81 0.68 0.46 0.37 0.35 0.37 0.33 0.27 0.23 0.16
0.24 0.30 0.37 0.49 0.69 0.85 0.95 1.09 1.22 1.43 1.69 1.80 1.89 1.91 1.90 1.85 1.73 1.68 1.77 1.86 1.93 1.94 1.94 1.94 2.03 2.11 2.13 2.14 1.94 1.71 1.60 1.46 1.32 1.19 0.89 0.68 0.58 0.42 0.38 0.36 0.34 0.35 0.32

GEFSSE_prec_meanprecacc_084.txt.gz
Total_Precipitation_Accumulation
0.03 0.04 0.15 0.19 0.18 0.17 0.24 0.33 0.34 0.30 0.34 0.44 0.44 0.39 0.36 0.22 0.16 0.15 0.16 0.17 0.24 0.35 0.34 0.30 0.28 0.24 0.18 0.18 0.22 0.27 0.34 0.42 0.46 0.49 0.56 0.58 0.54 0.54 0.61 0.66 0.64 0.77 0.52
0.03 0.03 0.14 0.18 0.15 0.13 0.17 0.25 0.30 0.30 0.32 0.38 0.40 0.40 0.29 0.18 0.14 0.13 0.15 0.16 0.19 0.24 0.26 0.29 0.32 0.27 0.22 0.24 0.29 0.31 0.34 0.39 0.47 0.49 0.60 0.59 0.52 0.54 0.50 0.47 0.52 0.65 0.48
0.06 0.05 0.11 0.18 0.13 0.10 0.12 0.21 0.29 0.33 0.37 0.42 0.44 0.44 0.22 0.11 0.11 0.12 0.15 0.18 0.20 0.16 0.17 0.24 0.31 0.30 0.25 0.29 0.35 0.36 0.37 0.39 0.45 0.48 0.73 0.95 0.60 0.56 0.57 0.58 0.54 0.47 0.47
0.12 0.11 0.17 0.22 0.19 0.15 0.17 0.27 0.35 0.40 0.45 0.53 0.52 0.37 0.14 0.09 0.12 0.15 0.20 0.24 0.19 0.12 0.12 0.16 0.23 0.24 0.22 0.27 0.33 0.31 0.37 0.41 0.47 0.51 0.75 1.02 0.85 0.77 0.74 0.71 0.62 0.45 0.48
0.14 0.18 0.33 0.33 0.29 0.25 0.26 0.36 0.46 0.51 0.48 0.54 0.51 0.27 0.13 0.11 0.12 0.18 0.25 0.21 0.14 0.11 0.09 0.10 0.15 0.16 0.17 0.18 0.24 0.28 0.34 0.43 0.56 0.59 0.77 0.97 1.01 0.82 0.74 0.82 0.79 0.60 0.58
0.18 0.20 0.30 0.35 0.32 0.30 0.34 0.43 0.46 0.41 0.41 0.49 0.42 0.26 0.15 0.15 0.17 0.20 0.18 0.12 0.08 0.08 0.06 0.06 0.09 0.11 0.13 0.13 0.18 0.26 0.36 0.45 0.52 0.63 0.78 0.98 0.95 0.72 0.67 0.80 0.86 0.74 0.65
0.27 0.23 0.29 0.34 0.30 0.30 0.37 0.44 0.46 0.38 0.42 0.46 0.43 0.35 0.19 0.18 0.19 0.20 0.13 0.07 0.05 0.05 0.06 0.05 0.05 0.05 0.07 0.10 0.14 0.20 0.31 0.31 0.43 0.62 0.76 0.97 0.74 0.53 0.53 0.71 0.94 0.94 0.79
0.41 0.34 0.30 0.36 0.33 0.33 0.38 0.45 0.47 0.44 0.50 0.49 0.38 0.32 0.28 0.20 0.19 0.15 0.10 0.06 0.04 0.05 0.07 0.04 0.03 0.04 0.06 0.11 0.15 0.17 0.23 0.21 0.27 0.43 0.60 0.79 0.69 0.62 0.48 0.55 0.75 0.87 0.88
0.51 0.47 0.41 0.39 0.40 0.42 0.48 0.48 0.50 0.54 0.61 0.57 0.38 0.31 0.33 0.22 0.14 0.09 0.06 0.03 0.02 0.03 0.06 0.03 0.02 0.04 0.07 0.12 0.14 0.15 0.17 0.19 0.24 0.32 0.42 0.58 0.60 0.60 0.46 0.48 0.60 0.69 0.83
0.56 0.54 0.48 0.45 0.46 0.49 0.54 0.57 0.57 0.54 0.60 0.57 0.43 0.38 0.36 0.23 0.14 0.09 0.05 0.03 0.02 0.03 0.06 0.04 0.03 0.05 0.07 0.10 0.11 0.11 0.12 0.14 0.23 0.28 0.37 0.39 0.49 0.46 0.35 0.36 0.42 0.48 0.56
0.53 0.55 0.51 0.48 0.51 0.55 0.61 0.62 0.70 0.71 0.73 0.64 0.54 0.48 0.37 0.24 0.20 0.14 0.07 0.06 0.05 0.07 0.07 0.04 0.05 0.05 0.04 0.06 0.07 0.06 0.05 0.12 0.20 0.22 0.27 0.33 0.42 0.36 0.28 0.27 0.30 0.31 0.34
0.54 0.56 0.55 0.58 0.55 0.54 0.57 0.77 0.93 0.82 0.75 0.64 0.66 0.58 0.47 0.38 0.35 0.20 0.14 0.15 0.12 0.11 0.09 0.06 0.06 0.04 0.01 0.01 0.02 0.02 0.03 0.08 0.15 0.16 0.18 0.32 0.36 0.32 0.25 0.22 0.24 0.24 0.24
0.58 0.60 0.55 0.52 0.47 0.47 0.61 0.77 0.94 0.98 0.96 0.92 0.75 0.73 0.63 0.48 0.31 0.16 0.14 0.16 0.14 0.14 0.09 0.07 0.04 0.02 0.03 0.01 0.00 0.01 0.03 0.07 0.13 0.15 0.18 0.34 0.37 0.31 0.26 0.22 0.20 0.20 0.20
0.53 0.56 0.53 0.50 0.48 0.46 0.47 0.57 0.70 0.74 0.74 0.73 0.72 0.65 0.63 0.55 0.41 0.26 0.22 0.24 0.21 0.14 0.10 0.08 0.06 0.05 0.04 0.02 0.02 0.04 0.04 0.04 0.11 0.16 0.17 0.38 0.49 0.40 0.34 0.26 0.21 0.20 0.21
0.48 0.51 0.54 0.57 0.55 0.60 0.60 0.56 0.54 0.59 0.63 0.65 0.70 0.60 0.54 0.51 0.48 0.43 0.32 0.33 0.27 0.17 0.16 0.14 0.07 0.06 0.06 0.03 0.05 0.06 0.04 0.05 0.10 0.13 0.18 0.36 0.61 0.71 0.59 0.42 0.34 0.27 0.26
0.46 0.57 0.61 0.58 0.61 0.60 0.56 0.59 0.61 0.61 0.64 0.66 0.67 0.57 0.50 0.48 0.47 0.51 0.43 0.41 0.31 0.30 0.32 0.20 0.12 0.10 0.08 0.02 0.01 0.03 0.03 0.04 0.07 0.12 0.21 0.33 0.54 0.81 0.92 0.74 0.59 0.49 0.37
0.43 0.57 0.68 0.66 0.68 0.64 0.60 0.62 0.66 0.65 0.62 0.64 0.67 0.57 0.50 0.51 0.50 0.59 0.56 0.48 0.42 0.43 0.40 0.35 0.30 0.18 0.12 0.05 0.03 0.02 0.03 0.05 0.06 0.06 0.11 0.24 0.32 0.43 0.69 0.85 0.84 0.75 0.56
0.40 0.51 0.63 0.65 0.70 0.73 0.72 0.72 0.69 0.64 0.65 0.69 0.72 0.66 0.59 0.55 0.58 0.74 0.75 0.60 0.57 0.57 0.52 0.49 0.40 0.27 0.18 0.12 0.09 0.06 0.04 0.04 0.06 0.06 0.06 0.07 0.08 0.10 0.18 0.29 0.38 0.50 0.57
0.40 0.47 0.52 0.58 0.77 0.81 0.77 0.83 0.83 0.79 0.84 0.86 0.88 0.84 0.76 0.71 0.78 0.94 0.99 0.86 0.76 0.79 0.70 0.57 0.50 0.46 0.31 0.25 0.18 0.15 0.09 0.06 0.05 0.05 0.05 0.05 0.04 0.04 0.07 0.08 0.12 0.17 0.29
0.34 0.39 0.46 0.54 0.67 0.78 0.93 1.01 1.09 1.10 1.09 1.20 1.26 1.24 1.07 0.99 1.04 1.17 1.25 1.21 1.12 1.11 1.03 0.83 0.78 0.71 0.60 0.53 0.38 0.28 0.18 0.13 0.10 0.07 0.08 0.08 0.06 0.03 0.04 0.03 0.06 0.06 0.09
0.25 0.30 0.37 0.53 0.68 0.83 0.96 1.10 1.35 1.52 1.61 1.58 1.59 1.67 1.57 1.37 1.43 1.51 1.45 1.67 1.70 1.61 1.53 1.39 1.33 1.24 0.96 0.70 0.82 0.78 0.46 0.26 0.19 0.16 0.13 0.09 0.08 0.06 0.05 0.04 0.05 0.04 0.04
0.15 0.22 0.29 0.44 0.66 0.89 1.11 1.30 1.50 1.80 1.94 1.94 2.00 1.95 1.90 1.77 1.77 1.68 1.71 1.89 1.92 1.98 2.03 1.78 1.75 1.71 1.38 0.99 1.17 1.37 0.94 0.62 0.32 0.21 0.18 0.14 0.13 0.12 0.11 0.08 0.07 0.04 0.03
0.09 0.14 0.21 0.34 0.55 0.86 1.16 1.41 1.60 1.83 2.08 2.17 2.07 2.02 2.06 2.14 2.16 2.04 1.97 2.05 2.04 2.08 2.21 2.19 2.05 2.01 1.85 1.49 1.31 1.42 1.24 1.01 0.74 0.32 0.24 0.23 0.23 0.21 0.20 0.17 0.14 0.11 0.08
0.10 0.13 0.17 0.31 0.47 0.70 0.98 1.29 1.52 1.78 2.07 2.14 2.12 2.09 2.12 2.23 2.30 2.26 2.21 2.24 2.20 2.11 2.15 2.21 2.16 2.23 2.30 1.98 1.66 1.36 1.13 1.07 1.01 0.66 0.38 0.31 0.35 0.35 0.31 0.23 0.19 0.18 0.16
0.15 0.18 0.24 0.38 0.52 0.72 0.97 1.28 1.57 1.76 1.91 2.07 2.08 2.00 1.93 1.96 1.98 1.98 2.09 2.21 2.19 2.15 2.12 2.25 2.33 2.42 2.33 2.17 1.94 1.77 1.59 1.35 1.01 0.93 0.80 0.55 0.44 0.39 0.41 0.37 0.32 0.28 0.22
0.24 0.30 0.37 0.49 0.70 0.86 0.96 1.10 1.23 1.44 1.71 1.82 1.91 1.94 1.92 1.87 1.75 1.71 1.81 1.90 1.97 1.99 1.99 1.99 2.09 2.20 2.26 2.30 2.13 1.89 1.77 1.62 1.46 1.31 0.99 0.77 0.67 0.51 0.45 0.42 0.40 0.40 0.37

GEFSSE_prec_meanprecacc_090.txt.gz
Total_Precipitation_Accumulation
0.04 0.06 0.21 0.26 0.23 0.23 0.29 0.37 0.37 0.35 0.39 0.48 0.47 0.43 0.38 0.23 0.18 0.16 0.18 0.19 0.26 0.37 0.35 0.31 0.28 0.24 0.19 0.18 0.22 0.27 0.34 0.42 0.47 0.49 0.56 0.58 0.55 0.56 0.63 0.69 0.68 0.83 0.57
0.04 0.06 0.20 0.27 0.23 0.20 0.23 0.30 0.35 0.34 0.36 0.43 0.44 0.44 0.31 0.19 0.15 0.15 0.16 0.17 0.21 0.26 0.27 0.30 0.32 0.28 0.22 0.24 0.29 0.32 0.34 0.39 0.47 0.50 0.60 0.59 0.52 0.55 0.51 0.50 0.55 0.71 0.55
0.08 0.08 0.17 0.26 0.22 0.19 0.21 0.30 0.37 0.39 0.42 0.46 0.48 0.47 0.26 0.14 0.14 0.15 0.17 0.20 0.21 0.18 0.19 0.26 0.32 0.30 0.25 0.29 0.35 0.36 0.37 0.39 0.45 0.49 0.73 0.96 0.61 0.56 0.59 0.60 0.57 0.50 0.54
0.14 0.15 0.23 0.32 0.30 0.25 0.26 0.37 0.45 0.50 0.54 0.60 0.58 0.41 0.18 0.13 0.15 0.17 0.21 0.25 0.20 0.14 0.14 0.18 0.24 0.25 0.22 0.28 0.33 0.32 0.38 0.41 0.48 0.51 0.76 1.04 0.88 0.77 0.75 0.73 0.64 0.48 0.52
0.17 0.23 0.41 0.46 0.41 0.36 0.37 0.45 0.56 0.63 0.60 0.65 0.59 0.33 0.17 0.14 0.15 0.19 0.26 0.22 0.15 0.12 0.10 0.11 0.16 0.17 0.17 0.18 0.24 0.29 0.35 0.45 0.58 0.60 0.79 0.98 1.05 0.83 0.75 0.83 0.81 0.63 0.63
0.21 0.25 0.38 0.47 0.44 0.43 0.48 0.56 0.57 0.52 0.51 0.58 0.50 0.34 0.20 0.19 0.19 0.21 0.19 0.13 0.10 0.10 0.08 0.07 0.10 0.12 0.13 0.13 0.19 0.27 0.37 0.47 0.54 0.66 0.81 1.01 0.98 0.73 0.68 0.82 0.88 0.79 0.71
0.34 0.30 0.37 0.45 0.42 0.41 0.49 0.57 0.59 0.50 0.52 0.55 0.52 0.44 0.27 0.23 0.23 0.23 0.15 0.11 0.09 0.08 0.08 0.06 0.06 0.07 0.08 0.11 0.14 0.21 0.33 0.34 0.46 0.65 0.79 1.00 0.76 0.54 0.54 0.74 0.97 0.98 0.86
0.51 0.44 0.41 0.48 0.46 0.45 0.50 0.56 0.59 0.57 0.63 0.60 0.48 0.42 0.38 0.28 0.26 0.20 0.14 0.12 0.09 0.09 0.10 0.06 0.05 0.06 0.07 0.11 0.15 0.18 0.24 0.22 0.29 0.45 0.62 0.81 0.70 0.63 0.49 0.58 0.79 0.90 0.94
0.61 0.58 0.52 0.52 0.52 0.54 0.60 0.60 0.63 0.68 0.77 0.72 0.51 0.43 0.44 0.31 0.22 0.17 0.14 0.11 0.09 0.10 0.10 0.06 0.04 0.05 0.08 0.12 0.14 0.15 0.18 0.20 0.27 0.35 0.43 0.59 0.61 0.61 0.47 0.51 0.64 0.74 0.87
0.62 0.61 0.55 0.55 0.58 0.60 0.66 0.70 0.71 0.70 0.76 0.73 0.57 0.51 0.50 0.34 0.22 0.17 0.15 0.14 0.12 0.12 0.14 0.10 0.06 0.07 0.08 0.10 0.11 0.12 0.12 0.16 0.28 0.30 0.39 0.40 0.51 0.48 0.37 0.39 0.47 0.53 0.60
0.57 0.59 0.56 0.54 0.58 0.64 0.72 0.75 0.83 0.83 0.86 0.78 0.68 0.63 0.52 0.37 0.30 0.23 0.14 0.15 0.15 0.18 0.18 0.14 0.11 0.08 0.06 0.07 0.07 0.07 0.05 0.14 0.24 0.25 0.29 0.35 0.45 0.38 0.30 0.31 0.35 0.36 0.38
0.60 0.63 0.61 0.64 0.62 0.63 0.67 0.91 1.07 0.94 0.85 0.74 0.76 0.69 0.59 0.52 0.49 0.30 0.21 0.23 0.21 0.23 0.23 0.19 0.17 0.10 0.04 0.02 0.02 0.03 0.03 0.09 0.17 0.17 0.19 0.33 0.39 0.36 0.28 0.27 0.28 0.28 0.28
0.62 0.64 0.60 0.58 0.53 0.54 0.69 0.86 1.04 1.09 1.05 1.02 0.87 0.84 0.76 0.63 0.46 0.30 0.26 0.26 0.23 0.24 0.22 0.19 0.17 0.11 0.07 0.04 0.02 0.02 0.03 0.08 0.14 0.17 0.19 0.36 0.40 0.34 0.32 0.26 0.25 0.25 0.24
0.54 0.58 0.55 0.53 0.50 0.49 0.50 0.60 0.75 0.81 0.80 0.81 0.82 0.75 0.74 0.71 0.60 0.43 0.35 0.37 0.34 0.27 0.25 0.25 0.21 0.16 0.12 0.06 0.03 0.04 0.04 0.04 0.11 0.17 0.19 0.39 0.51 0.43 0.39 0.33 0.27 0.25 0.26
0.48 0.51 0.55 0.57 0.55 0.61 0.60 0.57 0.55 0.61 0.66 0.70 0.77 0.69 0.62 0.61 0.62 0.58 0.45 0.46 0.39 0.30 0.30 0.30 0.21 0.17 0.16 0.08 0.06 0.07 0.04 0.05 0.10 0.13 0.18 0.37 0.63 0.74 0.63 0.49 0.40 0.33 0.31
0.46 0.57 0.62 0.58 0.61 0.60 0.56 0.59 0.62 0.62 0.65 0.67 0.70 0.63 0.56 0.53 0.53 0.61 0.54 0.53 0.43 0.42 0.44 0.33 0.26 0.24 0.21 0.11 0.05 0.05 0.04 0.04 0.07 0.13 0.22 0.34 0.55 0.82 0.96 0.79 0.66 0.56 0.42
0.43 0.57 0.68 0.66 0.69 0.65 0.60 0.62 0.66 0.65 0.62 0.64 0.68 0.60 0.54 0.55 0.54 0.64 0.63 0.57 0.52 0.54 0.53 0.49 0.44 0.32 0.23 0.14 0.08 0.05 0.04 0.06 0.06 0.06 0.12 0.26 0.34 0.44 0.70 0.89 0.91 0.83 0.62
0.40 0.51 0.63 0.65 0.70 0.73 0.72 0.72 0.69 0.64 0.66 0.70 0.73 0.68 0.62 0.59 0.62 0.78 0.80 0.66 0.65 0.67 0.65 0.65 0.57 0.44 0.32 0.24 0.17 0.12 0.07 0.06 0.06 0.06 0.06 0.09 0.11 0.11 0.20 0.32 0.42 0.57 0.66
0.40 0.47 0.52 0.58 0.77 0.81 0.77 0.83 0.83 0.79 0.85 0.88 0.90 0.86 0.80 0.75 0.82 0.97 1.03 0.92 0.85 0.89 0.80 0.69 0.65 0.62 0.49 0.42 0.32 0.23 0.13 0.09 0.07 0.06 0.07 0.07 0.07 0.07 0.09 0.10 0.15 0.21 0.36
0.34 0.39 0.46 0.54 0.67 0.78 0.93 1.01 1.09 1.10 1.10 1.20 1.27 1.25 1.08 1.01 1.06 1.19 1.28 1.24 1.16 1.18 1.11 0.93 0.92 0.88 0.76 0.70 0.53 0.37 0.25 0.18 0.13 0.10 0.10 0.12 0.11 0.05 0.04 0.05 0.10 0.09 0.12
0.25 0.30 0.37 0.53 0.68 0.83 0.96 1.10 1.36 1.52 1.62 1.59 1.60 1.67 1.58 1.38 1.44 1.53 1.48 1.69 1.73 1.66 1.60 1.48 1.46 1.40 1.13 0.88 1.01 0.93 0.55 0.32 0.24 0.20 0.17 0.14 0.12 0.09 0.07 0.06 0.10 0.10 0.07
0.15 0.22 0.29 0.44 0.66 0.89 1.11 1.30 1.50 1.81 1.95 1.95 2.01 1.96 1.90 1.79 1.78 1.70 1.73 1.92 1.96 2.03 2.09 1.86 1.86 1.84 1.52 1.15 1.38 1.59 1.12 0.75 0.40 0.25 0.23 0.19 0.18 0.16 0.13 0.10 0.09 0.08 0.06
0.09 0.14 0.21 0.34 0.56 0.86 1.16 1.41 1.60 1.83 2.09 2.19 2.09 2.04 2.07 2.15 2.17 2.05 2.00 2.08 2.09 2.13 2.26 2.26 2.14 2.12 1.98 1.63 1.49 1.68 1.47 1.20 0.89 0.42 0.30 0.30 0.30 0.27 0.24 0.19 0.16 0.12 0.10
0.10 0.13 0.17 0.32 0.47 0.71 0.98 1.29 1.53 1.79 2.09 2.15 2.13 2.11 2.14 2.24 2.32 2.27 2.23 2.26 2.23 2.15 2.21 2.28 2.24 2.33 2.42 2.10 1.80 1.51 1.31 1.25 1.20 0.84 0.50 0.40 0.43 0.42 0.37 0.27 0.22 0.20 0.17
0.15 0.18 0.24 0.38 0.53 0.73 0.97 1.29 1.58 1.77 1.92 2.09 2.11 2.04 1.96 1.99 2.00 1.99 2.11 2.23 2.21 2.18 2.16 2.31 2.40 2.51 2.42 2.29 2.07 1.89 1.70 1.47 1.13 1.10 0.99 0.73 0.59 0.50 0.49 0.44 0.38 0.34 0.26
0.24 0.30 0.37 0.50 0.71 0.86 0.96 1.10 1.24 1.46 1.74 1.86 1.95 1.98 1.97 1.90 1.77 1.73 1.83 1.92 2.00 2.03 2.02 2.04 2.16 2.27 2.35 2.41 2.26 2.03 1.89 1.72 1.56 1.42 1.12 0.95 0.88 0.68 0.57 0.50 0.47 0.47 0.44